Home > Weather > Bamenda > Past weeks

Flag for Cameroon Past Weather in Bamenda, Cameroon — Yesterday and Last 2 Weeks

Now
77 °F

Partly sunny.


Feels Like: 78 °F
Forecast: 63 / 71 °F
Wind: No wind

Location: Douala Obs.

Current Time: Aug 25, 2016 at 9:14:59 AM

Latest Report: Aug 25, 2016 at 8:00 AM


Visibility: 5 mi

Pressure: 29.92 "Hg (25.96 "Hg at 1240m altitude)

Humidity: 94%

Dew Point: 75 °F

Location of BamendaLocation

Past Weather in Bamenda — Graph

°F

Bamenda Temperature Yesterday

Maximum temperature yesterday: 79 °F (at 3:00 PM)
Minimum temperature yesterday: 75 °F (at 8:00 AM)
Average temperature yesterday: 77 °F

High & Low Weather Summary for the Past Weeks

 TemperatureHumidityPressure
High86 °F (Aug 11, 2:00 PM)100% (Aug 10, 3:00 PM)29.98 "Hg (Aug 10, 3:00 PM)
Low73 °F (Aug 19, 6:00 AM)70% (Aug 11, 2:00 PM)29.83 "Hg (Aug 14, 3:00 PM)
Average78 °F91%29.91 "Hg
* Reported Aug 10 8:00 AM — Aug 25 8:00 AM, Bamenda, Weather by CustomWeather, © 2016

Note: Actual official high and low records may vary slightly from our data, if they occured in-between our weather recording intervals... More about our weather records

Advertising

Bamenda Weather History for the Previous 24 Hours

Scroll right to see more
 ConditionsComfort  
Time TempWeatherWind HumidityBarometerVisibility
8:00 AM
Thu, Aug 25
77 °FPartly sunny.No wind94%29.92 "Hg5 mi
7:00 AM75 °FPartly sunny.No wind100%29.89 "Hg5 mi
6:00 AM75 °FPassing clouds.2 mph100%29.89 "Hg5 mi
5:00 AM75 °FPassing clouds.2 mph100%29.89 "Hg5 mi
4:00 AM75 °FPassing clouds.No wind100%29.89 "Hg5 mi
3:00 AM75 °FPassing clouds.No wind100%29.89 "Hg5 mi
2:00 AM75 °FPassing clouds.2 mph100%29.89 "Hg5 mi
1:00 AM75 °FPassing clouds.1 mph100%29.92 "Hg5 mi
12:00 AM75 °FPassing clouds.2 mph100%29.92 "Hg4 mi
11:00 PM
Wed, Aug 24
75 °FPassing clouds.No wind100%29.92 "HgN/A
10:00 PM77 °FPassing clouds.No wind89%29.92 "HgN/A
9:00 PM77 °FPassing clouds.2 mph94%29.92 "HgN/A
8:00 PM77 °FPartly cloudy.3 mph94%29.89 "HgN/A
7:00 PM77 °FPassing clouds.2 mph94%29.86 "HgN/A
6:00 PM77 °FPartly sunny.5 mph94%29.83 "HgN/A
5:00 PM79 °FPartly sunny.8 mph84%29.83 "HgN/A
4:00 PM79 °FPartly sunny.7 mph89%29.83 "HgN/A
3:00 PM79 °FPartly sunny.7 mph89%29.86 "HgN/A
2:00 PM77 °FLight rain. Partly sunny.6 mph94%29.89 "Hg4 mi
1:00 PM77 °FLight rain. Broken clouds.6 mph94%29.92 "Hg4 mi
12:00 PM75 °FThunderstorms. Broken clouds.5 mph100%29.95 "Hg2 mi
11:00 AM77 °FThunderstorms. Broken clouds.8 mph94%29.98 "Hg2 mi
10:00 AM77 °FThunderstorms. Broken clouds.3 mph100%29.95 "Hg1 mi
9:00 AM77 °FThunderstorms. Broken clouds.No wind94%29.92 "Hg1 mi
Weather by CustomWeather, © 2016

See weather overviewHow to use our weather pages